TimeEST,TemperatureF,Dew PointF,Humidity,Sea Level PressureIn,VisibilityMPH,Wind Direction,Wind SpeedMPH,Gust SpeedMPH,PrecipitationIn,Events,Conditions,WindDirDegrees,DateUTC
12:53 AM,50.0,46.9,89,29.63,10.0,Variable,3.5,-,N/A,,Clear,0,2012-11-24 05:53:00
1:53 AM,48.9,46.9,93,29.62,10.0,Calm,Calm,-,N/A,,Mostly Cloudy,0,2012-11-24 06:53:00
2:53 AM,48.9,46.0,90,29.60,10.0,Calm,Calm,-,N/A,,Overcast,0,2012-11-24 07:53:00
3:53 AM,48.0,44.1,86,29.58,10.0,Calm,Calm,-,N/A,,Overcast,0,2012-11-24 08:53:00
4:53 AM,48.9,42.1,77,29.57,10.0,Variable,4.6,-,N/A,,Overcast,0,2012-11-24 09:53:00
5:53 AM,48.0,42.1,80,29.58,10.0,Variable,5.8,-,N/A,,Overcast,0,2012-11-24 10:53:00
6:21 AM,46.4,39.2,76,29.58,10.0,NW,16.1,21.9,N/A,,Overcast,310,2012-11-24 11:21:00
6:49 AM,44.6,33.8,66,29.59,10.0,WNW,13.8,21.9,N/A,,Mostly Cloudy,300,2012-11-24 11:49:00
6:53 AM,44.1,33.1,65,29.59,10.0,WNW,11.5,21.9,N/A,,Mostly Cloudy,300,2012-11-24 11:53:00
7:53 AM,44.1,32.0,63,29.61,10.0,WNW,10.4,21.9,N/A,,Mostly Cloudy,300,2012-11-24 12:53:00
8:53 AM,44.1,27.0,51,29.62,10.0,WNW,18.4,27.6,N/A,,Overcast,300,2012-11-24 13:53:00
9:53 AM,43.0,24.1,47,29.62,10.0,WNW,16.1,25.3,N/A,,Overcast,300,2012-11-24 14:53:00
10:53 AM,45.0,24.1,44,29.60,10.0,WNW,16.1,25.3,N/A,,Clear,290,2012-11-24 15:53:00
11:53 AM,44.1,21.0,40,29.57,10.0,WNW,15.0,24.2,N/A,,Clear,290,2012-11-24 16:53:00
12:53 PM,44.1,19.9,38,29.57,10.0,WNW,15.0,21.9,N/A,,Clear,290,2012-11-24 17:53:00
1:53 PM,44.1,19.0,37,29.56,10.0,WNW,13.8,27.6,N/A,,Partly Cloudy,290,2012-11-24 18:53:00
2:53 PM,42.1,18.0,38,29.57,10.0,WNW,16.1,24.2,N/A,,Clear,290,2012-11-24 19:53:00
3:53 PM,41.0,18.0,40,29.59,10.0,WNW,16.1,28.8,N/A,,Clear,290,2012-11-24 20:53:00
4:53 PM,39.0,18.0,43,29.62,10.0,WNW,17.3,27.6,N/A,,Clear,290,2012-11-24 21:53:00
5:53 PM,37.9,19.0,47,29.65,10.0,WNW,15.0,32.2,N/A,,Clear,290,2012-11-24 22:53:00
6:53 PM,37.0,18.0,46,29.66,10.0,WNW,13.8,23.0,N/A,,Mostly Cloudy,290,2012-11-24 23:53:00
7:53 PM,36.0,18.0,48,29.67,10.0,WNW,12.7,24.2,N/A,,Partly Cloudy,290,2012-11-25 00:53:00
8:53 PM,36.0,19.0,50,29.67,10.0,WNW,13.8,25.3,N/A,,Overcast,290,2012-11-25 01:53:00
9:53 PM,34.0,19.0,54,29.68,10.0,WNW,12.7,21.9,N/A,,Partly Cloudy,300,2012-11-25 02:53:00
10:53 PM,33.1,17.1,52,29.70,10.0,WNW,12.7,23.0,N/A,,Clear,290,2012-11-25 03:53:00
11:53 PM,33.1,17.1,52,29.71,10.0,West,12.7,21.9,N/A,,Clear,280,2012-11-25 04:53:00